Weather History for K4A9 - January, 2013

Change the Weather History Date:

Friday, January 4, 2013

  Actual Average (KRMG) Record (KRMG)
Temperature  
Mean Temperature 34 °F 41 °F  
Max Temperature 46 °F 51 °F 75 °F (2005)
Min Temperature 23 °F 30 °F 16 °F (2014)
Degree Days  
Heating Degree Days 30 24  
Month to date heating degree days 96  
Since 1 July heating degree days 1396  
Moisture  
Dew Point 22 °F    
Average Humidity 66    
Maximum Humidity 93    
Minimum Humidity 25    
Precipitation  
Precipitation 0.00 in 0.10 in 1.12 in (2015)
Month to date precipitation 0.38  
Year to date precipitation 0.38  
Sea Level Pressure  
Sea Level Pressure 30.38 in    
Wind  
Wind Speed 1 mph (North)    
Max Wind Speed 12 mph    
Max Gust Speed -    
Visibility 9 miles    
Events      
T = Trace of Precipitation, MM = Missing Value Source: NWS Daily Summary

Daily Weather History Graph

Daily Weather History Graph

Search for Another Location

Airport or City:

Trip Planner

Search our weather history database for the weather conditions in past years. The results will help you decide how hot, cold, wet, or windy it might be!

Date:

Astronomy

Jan. 04, 2013 Rise Set
Actual Time 6:50 AM CST 4:46 PM CST
Civil Twilight 6:22 AM CST 5:13 PM CST
Nautical Twilight 5:51 AM CST 5:45 PM CST
Astronomical Twilight 5:20 AM CST 6:15 PM CST
Moon No Moon Rise 10:51 AM CST (1/4)
Length of Visible Light 10h 51m
Length of Day
9h 56m
Waning Gibbous, 55% of the Moon is Illuminated
Jan 4
Waning Gibbous
Jan 4
Last Quarter
Jan 11
New
Jan 18
First Quarter
Jan 26
Full

Hourly Weather History & Observations

Time (CST) Temp. Windchill Dew Point Humidity Pressure Visibility Wind Dir Wind Speed Gust Speed Precip Events Conditions
12:15 AM 28.4 °F - 26.6 °F 93% 30.35 in 7.0 mi Calm Calm - N/A   Clear
12:35 AM 28.4 °F - 24.8 °F 86% 30.34 in 7.0 mi Calm Calm - N/A   Clear
12:55 AM 26.6 °F - 24.8 °F 93% 30.33 in 7.0 mi Calm Calm - N/A   Clear
1:15 AM 26.6 °F - 23.0 °F 86% 30.34 in 5.0 mi Calm Calm - N/A   Clear
1:35 AM 26.6 °F - 24.8 °F 93% 30.34 in 5.0 mi Calm Calm - N/A   Clear
1:55 AM 26.6 °F - 23.0 °F 86% 30.34 in 5.0 mi Calm Calm - N/A   Clear
2:35 AM 26.6 °F - 23.0 °F 86% 30.36 in 5.0 mi Calm Calm - N/A   Clear
2:55 AM 26.6 °F - 23.0 °F 86% 30.36 in 5.0 mi Calm Calm - N/A   Clear
3:15 AM 24.8 °F - 23.0 °F 93% 30.35 in 5.0 mi Calm Calm - N/A   Clear
5:55 AM 23.0 °F - 21.2 °F 93% 30.40 in 7.0 mi Calm Calm - N/A   Clear
6:15 AM 23.0 °F - 21.2 °F 93% 30.40 in 7.0 mi Calm Calm - N/A   Clear
6:35 AM 23.0 °F - 21.2 °F 93% 30.40 in 7.0 mi Calm Calm - N/A   Clear
7:15 AM 23.0 °F - 21.2 °F 93% 30.40 in 5.0 mi Calm Calm - N/A   Clear
7:35 AM 24.8 °F - 23.0 °F 93% 30.41 in 5.0 mi Calm Calm - N/A   Clear
7:55 AM 26.6 °F - 23.0 °F 86% 30.41 in 5.0 mi Calm Calm - N/A   Clear
8:15 AM 28.4 °F - 24.8 °F 86% 30.41 in 7.0 mi Calm Calm - N/A   Clear
8:35 AM 30.2 °F - 26.6 °F 86% 30.41 in 7.0 mi Calm Calm - N/A   Clear
8:55 AM 32.0 °F - 28.4 °F 87% 30.42 in 10.0 mi Calm Calm - N/A   Clear
9:15 AM 33.8 °F - 26.6 °F 75% 30.42 in 10.0 mi Calm Calm - N/A   Clear
9:35 AM 35.6 °F - 26.6 °F 70% 30.42 in 10.0 mi Calm Calm - N/A   Clear
9:55 AM 37.4 °F - 24.8 °F 60% 30.43 in 10.0 mi Calm Calm - N/A   Clear
10:15 AM 37.4 °F 33.8 °F 23.0 °F 56% 30.42 in 10.0 mi ENE 4.6 mph - N/A   Clear
10:35 AM 41.0 °F - 23.0 °F 49% 30.42 in 10.0 mi Calm Calm - N/A   Clear
10:55 AM 41.0 °F - 23.0 °F 49% 30.41 in 10.0 mi Calm Calm - N/A   Clear
11:15 AM 42.8 °F - 21.2 °F 42% 30.40 in 10.0 mi Calm Calm - N/A   Clear
11:35 AM 42.8 °F - 21.2 °F 42% 30.40 in 10.0 mi Calm Calm - N/A   Clear
11:55 AM 44.6 °F - 21.2 °F 39% 30.38 in 10.0 mi Calm Calm - N/A   Clear
12:15 PM 44.6 °F 40.2 °F 19.4 °F 37% 30.38 in 10.0 mi NNE 8.1 mph - N/A   Clear
12:35 PM 46.4 °F - 17.6 °F 32% 30.36 in 10.0 mi Calm Calm - N/A   Clear
12:55 PM 46.4 °F - 15.8 °F 29% 30.36 in 10.0 mi Calm Calm - N/A   Clear
1:15 PM 46.4 °F - 12.2 °F 25% 30.35 in 10.0 mi Calm Calm - N/A   Clear
1:35 PM 46.4 °F - 14.0 °F 27% 30.35 in 10.0 mi Calm Calm - N/A   Clear
1:55 PM 46.4 °F - 15.8 °F 29% 30.35 in 10.0 mi Calm Calm - N/A   Clear
2:15 PM 46.4 °F - 17.6 °F 32% 30.35 in 10.0 mi Calm Calm - N/A   Clear
2:35 PM 46.4 °F 41.1 °F 17.6 °F 32% 30.35 in 10.0 mi North 11.5 mph - N/A   Clear
2:55 PM 46.4 °F 42.4 °F 17.6 °F 32% 30.35 in 10.0 mi North 8.1 mph - N/A   Clear
3:15 PM 46.4 °F 44.3 °F 17.6 °F 32% 30.35 in 10.0 mi North 4.6 mph - N/A   Clear
3:35 PM 44.6 °F 43.1 °F 17.6 °F 34% 30.35 in 10.0 mi North 3.5 mph - N/A   Clear
3:55 PM 44.6 °F - 17.6 °F 34% 30.34 in 10.0 mi Calm Calm - N/A   Clear
4:15 PM 44.6 °F 43.1 °F 19.4 °F 37% 30.35 in 10.0 mi North 3.5 mph - N/A   Clear
4:35 PM 42.8 °F - 19.4 °F 39% 30.35 in 10.0 mi Calm Calm - N/A   Clear
4:55 PM 41.0 °F 39.0 °F 21.2 °F 45% 30.36 in 10.0 mi NNW 3.5 mph - N/A   Clear
5:35 PM 35.6 °F - 24.8 °F 65% 30.37 in 10.0 mi Calm Calm - N/A   Clear
5:55 PM 33.8 °F - 26.6 °F 75% 30.38 in 10.0 mi Calm Calm - N/A   Clear
6:15 PM 32.0 °F - 23.0 °F 69% 30.38 in 10.0 mi Calm Calm - N/A   Clear
6:35 PM 32.0 °F - 24.8 °F 75% 30.38 in 10.0 mi Calm Calm - N/A   Clear
6:55 PM 32.0 °F - 24.8 °F 75% 30.38 in 10.0 mi Calm Calm - N/A   Clear
7:15 PM 32.0 °F - 23.0 °F 69% 30.39 in 10.0 mi Calm Calm - N/A   Clear
7:35 PM 32.0 °F - 23.0 °F 69% 30.40 in 10.0 mi Calm Calm - N/A   Clear
8:15 PM 30.2 °F - 24.8 °F 80% 30.39 in 10.0 mi Calm Calm - N/A   Clear
8:35 PM 30.2 °F - 23.0 °F 75% 30.39 in 10.0 mi Calm Calm - N/A   Clear
9:15 PM 28.4 °F - 23.0 °F 80% 30.39 in 10.0 mi Calm Calm - N/A   Clear
9:35 PM 28.4 °F - 23.0 °F 80% 30.38 in 10.0 mi Calm Calm - N/A   Clear
9:55 PM 26.6 °F - 23.0 °F 86% 30.38 in 10.0 mi Calm Calm - N/A   Clear
10:15 PM 28.4 °F - 23.0 °F 80% 30.38 in 10.0 mi Calm Calm - N/A   Clear
10:35 PM 28.4 °F - 23.0 °F 80% 30.39 in 10.0 mi Calm Calm - N/A   Clear
10:55 PM 28.4 °F - 23.0 °F 80% 30.40 in 10.0 mi Calm Calm - N/A   Clear
11:15 PM 28.4 °F - 23.0 °F 80% 30.38 in 10.0 mi Calm Calm - N/A   Clear
11:35 PM 26.6 °F - 23.0 °F 86% 30.38 in 10.0 mi Calm Calm - N/A   Clear
11:55 PM 26.6 °F - 23.0 °F 86% 30.38 in 10.0 mi Calm Calm - N/A   Clear